Jackson, WY

9:28 AM MST on December 12, 2019 (GMT -0700)
Jackson Hole

Weather History for KJAC - October, 2019

Change the Weather History Date:

Monday, October 7, 2019

  Actual Average Record
Temperature  
Mean Temperature 40 °F -  
Max Temperature 62 °F 61 °F 76 °F (1980)
Min Temperature 19 °F 24 °F 14 °F (2000)
Degree Days  
Heating Degree Days 24    
Moisture  
Dew Point 20 °F    
Average Humidity 58    
Maximum Humidity 92    
Minimum Humidity 15    
Precipitation  
Precipitation 0.00 in - - ()
Sea Level Pressure  
Sea Level Pressure 30.31 in    
Wind  
Wind Speed 5 mph ()    
Max Wind Speed 15 mph    
Max Gust Speed 22 mph    
Visibility 10.0 miles    
Events      
Averages and records for this station are not official NWS values.
T = Trace of Precipitation, MM = Missing Value Source: Averaged Metar Reports

Daily Weather History Graph

Daily Weather History Graph

Search for Another Location

Airport or City:

Astronomy

Oct. 07, 2019 Rise Set
Actual Time 7:27 AM MDT 6:53 PM MDT
Civil Twilight 6:58 AM MDT 7:22 PM MDT
Nautical Twilight 6:25 AM MDT 7:55 PM MDT
Astronomical Twilight 5:52 AM MDT 8:28 PM MDT
Moon 4:30 PM MDT (10/7) 1:10 AM MDT (10/7)
Length of Visible Light 12h 23m
Length of Day
11h 26m
Waxing Gibbous, 69% of the Moon is Illuminated
Oct 7
Waxing Gibbous
Oct 13
Full
Oct 21
Last Quarter
Oct 27
New
Nov 4
First Quarter

Hourly Weather History & Observations

Time (MDT) Temp. Windchill Dew Point Humidity Pressure Visibility Wind Dir Wind Speed Gust Speed Precip Events Conditions
12:56 AM 26.1 °F 18.4 °F 21.9 °F 84% 30.46 in 10.0 mi NNE 6.9 mph - N/A   Clear
1:56 AM 21.9 °F 17.2 °F 19.0 °F 89% 30.48 in 10.0 mi NE 3.5 mph - N/A   Clear
2:56 AM 24.1 °F 19.7 °F 21.0 °F 88% 30.45 in 10.0 mi ENE 3.5 mph - N/A   Clear
3:56 AM 21.0 °F 14.6 °F 19.0 °F 92% 30.45 in 10.0 mi NNE 4.6 mph - N/A   Clear
4:56 AM 23.0 °F 18.4 °F 19.9 °F 88% 30.44 in 10.0 mi North 3.5 mph - N/A   Clear
5:56 AM 19.9 °F 13.4 °F 18.0 °F 92% 30.44 in 10.0 mi NNE 4.6 mph - N/A   Clear
6:56 AM 19.0 °F - 17.1 °F 92% 30.48 in 10.0 mi Calm Calm - N/A   Clear
7:56 AM 19.9 °F 14.9 °F 16.0 °F 85% 30.48 in 10.0 mi North 3.5 mph - N/A   Clear
8:56 AM 28.9 °F - 24.1 °F 82% 30.46 in 10.0 mi Calm Calm - N/A   Clear
9:56 AM 30.9 °F - 24.1 °F 76% 30.45 in 10.0 mi Calm Calm - N/A   Clear
10:56 AM 37.9 °F 34.4 °F 25.0 °F 60% 30.40 in 10.0 mi South 4.6 mph - N/A   Clear
11:56 AM 44.1 °F 39.5 °F 26.1 °F 49% 30.34 in 10.0 mi SSW 8.1 mph - N/A   Clear
12:56 PM 46.9 °F - 26.1 °F 44% 30.28 in 10.0 mi WSW 6.9 mph - N/A   Clear
1:56 PM 57.0 °F - 21.0 °F 25% 30.22 in 10.0 mi WSW 11.5 mph - N/A   Clear
2:56 PM 60.1 °F - 16.0 °F 18% 30.17 in 10.0 mi SW 6.9 mph 16.1 mph N/A   Clear
3:56 PM 62.1 °F - 14.0 °F 15% 30.14 in 10.0 mi WSW 11.5 mph 21.9 mph N/A   Clear
4:56 PM 61.0 °F - 15.1 °F 17% 30.12 in 10.0 mi SW 15.0 mph 20.7 mph N/A   Clear
5:56 PM 57.9 °F - 19.0 °F 22% 30.14 in 10.0 mi SW 8.1 mph - N/A   Clear
6:56 PM 48.9 °F - 19.0 °F 31% 30.18 in 10.0 mi SW 9.2 mph - N/A   Clear
7:56 PM 46.0 °F 43.1 °F 19.9 °F 35% 30.18 in 10.0 mi SSW 5.8 mph - N/A   Clear
8:56 PM 37.9 °F 30.9 °F 19.9 °F 48% 30.17 in 10.0 mi SW 10.4 mph - N/A   Clear
9:56 PM 37.9 °F - 21.0 °F 51% 30.17 in 10.0 mi Calm Calm - N/A   Clear
10:56 PM 41.0 °F 39.0 °F 21.0 °F 45% 30.13 in 10.0 mi SSW 3.5 mph - N/A   Clear
11:56 PM 35.1 °F 30.1 °F 21.0 °F 57% 30.11 in 10.0 mi SE 5.8 mph - N/A   Clear